Location: Anjeux
(47.8815°N, 6.2076°E)
Time: 21:03:14
(UTC+00:00)

Meteor 1-20 Rocket - Pass Details

Date: 05 March 2021
Orbit: 820 x 891 km, 81.2° (Epoch: 20 April)

Event Time Altitude Azimuth Distance (km) Brightness Sun altitude
Rises 04:32:40 0° 349° (NNW) 3,426 7.4 -16.8°
Reaches altitude 10° 04:35:05 10° 350° (N) 2,497 6.6 -16.4°
Maximum altitude 04:40:46 83° 78° (ENE) 880 4.3 -15.4°
Drops below altitude 10° 04:46:32 10° 167° (SSE) 2,526 6.7 -14.5°
Sets 04:48:59 0° 168° (SSE) 3,468 7.5 -14.1°
